Missoula, MT

4:13 AM MST on November 21, 2017 (GMT -0700)
Missoula International

Weather History for KMSO - May, 2013

Change the Weather History Date:

Sunday, May 19, 2013

  Actual Average Record
Temperature  
Mean Temperature 53 °F 54 °F  
Max Temperature 62 °F 68 °F 91 °F (2002)
Min Temperature 44 °F 41 °F 27 °F (1974)
Degree Days  
Heating Degree Days 12 11  
Month to date heating degree days 179 250  
Since 1 July heating degree days 6658 7013  
Cooling Degree Days 0 0  
Month to date cooling degree days 4 0  
Year to date cooling degree days 4 0  
Growing Degree Days 4 (Base 50)    
Moisture  
Dew Point 44 °F    
Average Humidity 75    
Maximum Humidity 92    
Minimum Humidity 57    
Precipitation  
Precipitation 0.05 in 0.07 in 1.49 in (1902)
Month to date precipitation 0.70 1.05  
Year to date precipitation 3.44 4.82  
Snow  
Snow 0.00 in - - ()
Month to date snowfall T  
Year to date snowfall 27.4  
Since 1 July snowfall 48.5  
Snow Depth 0.00 in    
Sea Level Pressure  
Sea Level Pressure 30.19 in    
Wind  
Wind Speed 3 mph (NNW)    
Max Wind Speed 15 mph    
Max Gust Speed 20 mph    
Visibility 10 miles    
Events Rain    
T = Trace of Precipitation, MM = Missing Value Source: NWS Daily Summary

Daily Weather History Graph

Daily Weather History Graph

Search for Another Location

Airport or City:

Trip Planner

Search our weather history database for the weather conditions in past years. The results will help you decide how hot, cold, wet, or windy it might be!

Date:

Astronomy

May. 19, 2013 Rise Set
Actual Time 5:56 AM MDT 9:10 PM MDT
Civil Twilight 5:19 AM MDT 9:46 PM MDT
Nautical Twilight 4:32 AM MDT 10:34 PM MDT
Astronomical Twilight 3:32 AM MDT 11:35 PM MDT
Moon 2:57 PM MDT (5/19) 2:45 AM MDT (5/19)
Length of Visible Light 16h 27m
Length of Day
15h 13m
Waxing Gibbous, 66% of the Moon is Illuminated
May 19
Waxing Gibbous
May 24
Full
May 31
Last Quarter
Jun 8
New
Jun 16
First Quarter

Hourly Weather History & Observations

Time (MDT) Temp. Dew Point Humidity Pressure Visibility Wind Dir Wind Speed Gust Speed Precip Events Conditions
12:53 AM 48.0 °F 42.1 °F 80% 30.11 in 10.0 mi NNW 4.6 mph - N/A   Mostly Cloudy
1:53 AM 45.0 °F 41.0 °F 86% 30.12 in 10.0 mi Calm Calm - N/A   Scattered Clouds
2:53 AM 44.1 °F 42.1 °F 93% 30.13 in 10.0 mi Calm Calm - N/A   Overcast
3:53 AM 45.0 °F 43.0 °F 93% 30.16 in 10.0 mi Calm Calm - N/A   Overcast
4:53 AM 46.0 °F 43.0 °F 89% 30.17 in 10.0 mi Calm Calm - N/A   Overcast
5:53 AM 44.6 °F 42.8 °F 93% 30.16 in 10.0 mi Calm Calm - N/A   Overcast
6:53 AM 45.0 °F 43.0 °F 93% 30.19 in 10.0 mi Calm Calm - N/A   Overcast
7:53 AM 46.0 °F 43.0 °F 89% 30.19 in 10.0 mi Calm Calm - N/A   Overcast
8:53 AM 46.9 °F 43.0 °F 86% 30.20 in 10.0 mi Calm Calm - N/A   Overcast
9:53 AM 48.9 °F 44.1 °F 83% 30.21 in 10.0 mi Calm Calm - N/A   Overcast
10:53 AM 52.0 °F 44.1 °F 74% 30.20 in 10.0 mi Calm Calm - N/A   Overcast
11:53 AM 54.0 °F 41.0 °F 62% 30.19 in 10.0 mi NNW 4.6 mph - N/A   Overcast
12:53 PM 55.4 °F 42.8 °F 63% 30.19 in 10.0 mi Calm Calm - N/A Rain Light Rain
1:53 PM 55.4 °F 42.8 °F 63% 30.19 in 10.0 mi Calm Calm - N/A   Overcast
2:53 PM 57.9 °F 43.0 °F 58% 30.19 in 10.0 mi WNW 4.6 mph - N/A   Overcast
3:53 PM 59.0 °F 42.1 °F 53% 30.19 in 10.0 mi NNW 11.5 mph - 0.00 in Rain Light Rain
4:53 PM 53.1 °F 46.0 °F 77% 30.22 in 6.0 mi NNW 10.4 mph - 0.01 in Rain Rain
5:53 PM 55.0 °F 46.0 °F 72% 30.21 in 8.0 mi North 5.8 mph - 0.02 in Rain Light Rain
6:53 PM 55.9 °F 46.0 °F 69% 30.21 in 10.0 mi Calm Calm - 0.01 in Rain Light Rain
7:53 PM 55.0 °F 46.0 °F 72% 30.22 in 10.0 mi NW 4.6 mph - 0.00 in   Overcast
8:53 PM 55.0 °F 46.9 °F 74% 30.22 in 10.0 mi WNW 4.6 mph - N/A   Overcast
9:53 PM 53.6 °F 44.6 °F 72% 30.23 in 10.0 mi North 3.5 mph - N/A   Overcast
10:53 PM 52.0 °F 46.9 °F 83% 30.25 in 10.0 mi NW 4.6 mph - N/A   Overcast
11:53 PM 51.1 °F 43.0 °F 74% 30.25 in 10.0 mi NNW 5.8 mph - N/A   Mostly Cloudy